Location: Wyoming Skies Observatory
(43.6910°N, 108.3105°W)
Time: 03:27:37
(UTC-06:00)

Daily predictions for brighter satellites

Satellite Brightness Start Highest point End
(mag) Time Altitude Azimuth Time Altitude Azimuth Time Altitude Azimuth
Meteor 1-18 Rocket 4.4 00:13:09 69° NNE 00:13:09 69° NNE 00:18:21 10° NNE
ATLAS CENTAUR R/B 3.5 00:18:47 24° NNE 00:18:47 24° NNE 00:20:28 10° NNE
CZ-4B R/B 4.5 00:13:53 10° N 00:18:01 39° WNW 00:18:01 39° WNW
ATLAS 3B R/B 2.8 00:15:02 10° NNW 00:21:49 62° NE 00:22:22 60° ENE
Cosmos 2369 Rocket 3.4 00:17:02 10° N 00:22:00 31° NE 00:22:20 31° ENE
Cosmos 1607 4.1 00:16:11 10° NNW 00:22:32 67° NE 00:22:36 67° ENE
Cosmos 2297 4.4 00:17:48 10° NW 00:22:22 44° W 00:22:22 44° W
Cosmos 841 Rocket 4.1 00:26:44 52° N 00:26:44 52° N 00:30:43 10° NNE
Cosmos 1943 Rocket 4.1 00:24:48 10° N 00:29:02 21° NE 00:30:30 19° ENE
Cosmos 2074 Rocket 4.0 00:28:59 10° N 00:34:44 75° NNE 00:34:44 75° NNE
Cosmos 371 Rocket 4.5 00:42:58 40° NNW 00:42:58 40° NNW 00:46:42 10° N
Cosmos 2154 Rocket 4.5 00:39:18 10° N 00:45:08 51° ENE 00:45:08 51° ENE
SL-16 R/B 3.0 00:45:56 44° WNW 00:46:09 44° WNW 00:51:37 10° NNE
USA 238 DEB 3.9 00:39:17 10° NNW 00:46:21 67° NE 00:47:05 63° E
USA 238 3.9 00:39:23 10° NNW 00:46:26 66° NE 00:47:13 62° E
ALOS 2 4.4 01:02:52 28° NNW 01:02:52 28° NNW 01:05:05 10° NNW
CZ-2C R/B 3.2 01:02:52 10° N 01:07:29 58° NNW 01:07:29 58° NNW
Cosmos 2181 Rocket 4.2 01:31:34 65° ENE 01:31:34 65° ENE 01:37:37 10° NNE
Nadezhda 1 Rocket 4.4 01:35:26 52° WNW 01:35:26 52° WNW 01:41:12 10° N
COSMOS 2455 4.1 01:29:47 10° NNW 01:35:17 35° NE 01:37:28 27° E
Meteor 2-4 Rocket 4.2 01:39:13 54° NNW 01:39:13 54° NNW 01:43:34 10° N
Cosmos 1943 3.6 01:40:19 61° NNE 01:40:19 61° NNE 01:44:56 10° NNE
SL-8 Rocket 4.2 01:34:49 10° N 01:40:46 62° ENE 01:40:46 62° ENE
NOSS 3-4 (A) 4.1 01:46:41 45° E 01:46:41 45° E 01:51:51 10° NE
NOSS 3-4 (C) 4.1 01:46:47 44° E 01:46:47 44° E 01:51:57 10° NE
ATLAS 2AS CENTAUR R/B 3.8 01:42:53 31° W 01:46:13 46° NW 01:54:02 10° NNE
Cosmos 1295 Rocket 4.5 01:45:23 10° N 01:50:53 73° NNW 01:50:53 73° NNW
ATLAS CENTAUR R/B 4.3 01:55:35 10° NW 01:56:14 10° NNW 01:56:51 10° NNW
NOSS 3-2 (A) 3.9 01:49:43 10° NW 01:57:15 90° ENE 01:58:29 68° SE
Cosmos 2369 Rocket 3.4 02:00:53 10° NW 02:04:07 31° WNW 02:04:07 31° WNW
ATLAS 3B R/B 4.1 02:06:30 10° NW 02:09:36 22° WNW 02:09:36 22° WNW
Cosmos 1943 Rocket 2.7 02:07:43 10° NNW 02:12:00 51° NW 02:12:00 51° NW
BREEZE-M DEB (TANK) 3.8 02:24:22 43° E 02:24:22 43° E 02:30:49 10° ENE
Helios 1A Rocket 4.4 02:20:19 10° NNE 02:22:47 36° NNE 02:22:47 36° NNE
Cosmos 1959 Rocket 4.4 02:18:28 10° NNW 02:24:35 74° W 02:24:35 74° W
Lacrosse 5 rocket 3.5 02:28:02 22° E 02:28:02 22° E 02:30:13 10° ENE
Aureole 1 Rocket 4.0 02:32:01 49° NE 02:32:01 49° NE 02:35:02 10° NNE
Cosmos 1626 Rocket 4.4 02:39:33 49° NNE 02:39:33 49° NNE 02:42:49 10° N
Meteor 2-14 Rocket 4.2 02:38:13 10° N 02:44:22 83° W 02:44:41 79° SSW
COSMOS 2406 3.4 02:44:19 62° ESE 02:44:28 62° ESE 02:50:09 10° NNE
Cosmos 1066 Rocket 4.1 02:47:06 73° NW 02:47:06 73° NW 02:52:11 10° N
USA 215 3.1 02:40:19 10° NE 02:46:54 86° SE 02:47:57 66° SW
Meteor 2-16 Rocket 4.2 02:42:59 10° N 02:49:05 86° W 02:49:37 76° S
Cosmos 1656 Rocket 3.6 02:43:52 10° NNW 02:48:42 69° NW 02:48:42 69° NW
IRS-P3 4.2 02:46:06 10° NNE 02:51:26 66° ESE 02:51:40 66° ESE
Cosmos 2056 Rocket 4.2 02:47:15 10° N 02:52:28 50° ENE 02:54:19 35° ESE
Meteor 2-21 Rocket 4.4 02:46:55 10° NNW 02:53:01 67° W 02:53:10 67° WSW
RESURS DK-1 3.2 02:57:35 49° NNE 02:57:35 49° NNE 03:00:41 10° NNE
Cosmos 1680 Rocket 3.5 02:57:09 70° WNW 02:57:09 70° WNW 03:02:17 10° NNE
Meteor 1-22 Rocket 4.0 02:52:24 10° NNW 02:57:46 77° WNW 02:57:46 77° WNW
Cosmos 1602 Rocket 4.2 03:01:38 51° NNW 03:01:38 51° NNW 03:05:09 10° N
CBERS-1 4.1 02:55:41 10° NNE 03:00:47 66° ESE 03:01:04 65° ESE
ADEOS Rocket 4.1 02:56:41 10° NNE 03:02:26 39° E 03:05:31 26° SE
Cosmos 1821 Rocket 4.2 02:57:15 10° N 03:03:20 65° E 03:05:36 39° SE
SL-27 R/B 3.9 03:06:51 37° NE 03:06:51 37° NE 03:09:15 10° NNE
NOSS 3-2 (C) 4.2 03:02:01 10° NW 03:09:11 47° WSW 03:09:27 47° WSW
CENTAUR R/B 3.2 03:01:20 10° NW 03:09:12 78° NE 03:17:39 10° SE
Cosmos 2239 Rocket 4.5 03:05:44 10° N 03:11:55 77° E 03:14:01 44° SSE
Cosmos 1544 4.2 03:08:45 10° N 03:11:22 43° NNE 03:11:22 43° NNE
Resurs 1-4 Rocket 3.0 03:09:43 10° NNE 03:14:43 42° E 03:16:22 33° SE
IRS-1D 4.3 03:13:23 10° NNE 03:18:26 46° E 03:20:05 35° SE
Cosmos 1934 Rocket 4.2 03:13:23 10° N 03:19:42 69° E 03:23:05 29° SSE
USA 267 3.5 03:13:18 10° ESE 03:19:47 70° NE 03:26:18 10° NW
COSMOS 2455 3.3 03:15:39 10° NW 03:20:33 43° W 03:20:33 43° W
Cosmos 1535 Rocket 4.4 03:15:55 10° N 03:22:10 86° E 03:24:26 42° S
ARIANE 5 R/B 3.3 03:18:19 10° NNE 03:23:23 48° E 03:25:07 35° SSE
ADEOS 4.2 03:19:54 10° NNE 03:24:59 50° E 03:26:42 36° SSE
Meteor 1-4 Rocket 4.5 03:21:47 10° NNW 03:23:32 23° NW 03:23:32 23° NW
Cosmos 1953 2.5 03:21:26 10° N 03:25:26 65° E 03:25:29 65° E
SL-08 R/B 3.5 03:26:21 56° WNW 03:26:21 56° WNW 03:30:43 10° NNW
NPP 3.6 03:23:08 10° N 03:28:30 66° WNW 03:29:22 57° WSW
SL-16 R/B 2.5 03:25:03 28° SSE 03:28:31 81° ENE 03:34:43 10° NNW
Cosmos 1371 Rocket 4.0 03:23:18 10° NNW 03:28:37 63° WSW 03:28:55 61° SW
Cosmos-2242 4.4 03:25:15 10° N 03:29:21 37° ENE 03:32:00 19° SE
Cosmos 921 Rocket 3.0 03:30:11 10° NNW 03:34:43 86° WSW 03:35:12 71° S
NOSS 2-2 (D) 3.3 03:35:19 77° SSE 03:35:30 79° SE 03:40:11 10° NE
CZ-2D R/B 2.3 03:30:32 10° NNE 03:35:48 64° ESE 03:37:39 39° SSE
NOSS 3-4 (A) 4.4 03:34:06 27° W 03:36:43 38° NW 03:42:51 10° NNE
NOSS 3-4 (C) 4.4 03:34:12 27° W 03:36:50 39° NW 03:42:57 10° NNE
Cosmos 1758 Rocket 3.4 03:43:40 65° S 03:44:17 88° E 03:48:39 10° N
Cosmos 1758 3.4 03:40:20 10° NNW 03:44:11 64° WNW 03:44:11 64° WNW
COSMOS 2487 3.8 03:44:17 31° ESE 03:44:49 33° ESE 03:48:04 10° NE
Cosmos 2278 4.2 03:41:16 10° NNW 03:46:57 61° ENE 03:52:35 10° SE
Cosmos 1271 Rocket 3.2 03:44:01 10° NNW 03:46:54 44° NW 03:46:54 44° NW
Cosmos 1805 4.2 03:49:58 10° NNW 03:52:50 34° WNW 03:52:50 34° WNW
NOSS 2-2 (C) 3.5 03:53:11 57° WSW 03:53:53 70° NW 03:58:37 10° NNE
Cosmos 2369 4.0 03:49:57 10° NNW 03:55:43 69° ENE 04:01:25 10° SSE
CZ-2D R/B 4.5 03:52:43 10° NNE 03:56:33 40° E 03:58:30 23° SSE
Cosmos 1818 3.5 03:55:17 43° SW 03:57:05 77° NW 04:02:34 10° NNE
Cosmos 1656 4.4 03:53:39 10° NNW 03:58:58 51° ENE 04:04:14 10° SE
Cosmos 839 Rocket 4.1 03:58:40 10° NW 04:04:59 71° WSW 04:12:27 10° SSE
Lacrosse 5 rocket 2.1 04:03:43 35° W 04:05:18 52° NW 04:09:53 10° NE
Cosmos 1953 Rocket 3.8 04:05:25 44° WSW 04:06:18 52° WNW 04:10:42 10° N
Cosmos 1833 Rocket 3.7 04:03:41 17° S 04:07:37 41° ESE 04:12:51 10° NE
Cosmos 1980 Rocket 4.2 04:04:44 10° N 04:09:43 30° NE 04:14:39 10° ESE
GEOS 3 Rocket 3.6 04:07:09 10° NE 04:12:28 84° SE 04:15:10 31° SSW
Cosmos 2082 Rocket 2.9 04:09:06 19° S 04:13:02 51° ESE 04:18:33 10° NE
UNK 4.2 04:12:45 37° WSW 04:13:29 40° W 04:17:49 10° NNW
ADEOS II 4.1 04:10:41 10° NE 04:14:56 25° E 04:19:11 10° SSE
DNEPR-1 R/B 3.5 04:12:03 10° NW 04:16:12 57° WSW 04:20:36 10° SSE
EXPRESS MD2 3.4 04:18:02 10° WNW 04:24:21 88° SSW 04:27:31 10° ESE
Meteor 2-5 Rocket 3.8 04:20:19 17° S 04:24:48 83° E 04:30:42 10° NNE
Cosmos 389 Rocket 2.8 04:21:30 10° NNW 04:24:59 46° W 04:25:41 40° SW
Cosmos 1378 3.2 04:24:42 26° S 04:26:44 79° E 04:30:29 10° N
COBE Rocket 4.2 04:23:07 10° N 04:28:01 52° WNW 04:30:28 27° SW
USA 215 4.2 04:23:33 10° NE 04:29:31 39° NNW 04:35:18 11° W
Cosmos 1707 2.8 04:29:01 32° SSW 04:30:35 60° W 04:34:25 10° N
Cosmos 158 Rocket 4.5 04:28:08 14° S 04:32:22 56° ESE 04:37:26 10° NNE
Cosmos 2061 Rocket 4.4 04:26:16 10° N 04:32:27 63° E 04:38:34 10° SSE
Cosmos 2098 Rocket 2.8 04:30:07 10° NNW 04:32:38 34° W 04:32:38 34° W
Cosmos 1727 Rocket 4.0 04:29:47 20° SSW 04:34:10 65° W 04:40:18 10° N
Meteor 1-16 Rocket 4.0 04:33:25 10° NNW 04:38:48 77° W 04:44:04 10° S
Cosmos 1470 3.8 04:40:56 10° NNW 04:44:15 27° W 04:45:18 24° WSW
ADEOS Rocket 3.8 04:42:20 10° N 04:47:55 38° WNW 04:52:29 17° SW
USA 161 2.1 04:49:23 27° SW 04:50:18 35° W 04:52:55 10° NNW
Resurs 1-4 Rocket 3.3 04:49:58 10° N 04:54:21 27° WNW 04:57:28 16° WSW
Okean O Rocket 2.3 04:51:04 10° NNE 04:55:26 55° E 04:59:45 10° S
Cosmos 1459 Rocket 3.9 04:51:36 10° N 04:57:47 77° W 05:04:02 10° S
MOS 1-B 4.3 04:53:20 10° NNE 04:59:10 77° WNW 05:04:56 10° SSW
CENTAUR R/B 3.9 04:52:55 10° NW 04:59:27 28° WSW 05:06:14 10° SSW
Abrixas 3.3 04:57:00 10° WNW 04:59:43 45° NNE 05:02:27 10° E
UNKNOWN OBJECT B 3.9 04:57:48 10° N 05:01:19 30° WNW 05:03:49 16° WSW
ARIANE 5 R/B 3.9 04:58:03 10° N 05:02:11 24° WNW 05:05:27 14° WSW
Cosmos 1802 Rocket 4.1 04:56:06 10° N 05:02:34 84° W 05:08:56 10° S
USA 267 3.7 04:57:07 10° SSE 05:03:04 37° SW 05:09:03 10° WNW
Gbstr 26 Del rocket 4.5 04:56:17 10° WNW 05:04:12 78° NNE 05:10:55 10° ESE
Cosmos-2242 4.5 05:03:26 10° NW 05:06:39 20° W 05:08:49 14° WSW
CZ-2C R/B 4.4 05:03:33 10° SSE 05:07:54 56° ENE 05:12:18 10° N
Meteor 2-17 Rocket 4.4 05:03:40 10° NNW 05:09:43 74° W 05:15:44 10° S
Cosmos 1725 Rocket 4.4 05:06:08 10° N 05:12:24 70° E 05:18:41 10° SSE
SL-16 R/B 4.0 05:10:07 13° WSW 05:12:49 16° W 05:16:34 10° NW
MOS 1 Rocket 3.8 05:10:46 10° N 05:14:50 39° WNW 05:19:02 10° SW
CZ-2D R/B 3.7 05:11:44 10° NNW 05:15:21 19° WNW 05:18:56 10° WSW
Meteor 1-24 Rocket 3.8 05:10:06 10° SSW 05:15:32 62° WNW 05:21:15 10° N
Cosmos 1697 Rocket 2.8 05:13:20 10° NW 05:18:47 52° WSW 05:24:11 10° S
Cosmos 1842 Rocket 4.3 05:15:36 10° NNW 05:19:33 32° W 05:23:30 10° SSW
COSMOS 2487 4.4 05:18:12 11° W 05:20:23 17° WNW 05:22:47 10° NNW
PSLV R/B 3.7 05:16:37 10° NNE 05:21:01 81° ESE 05:25:19 10° S
GENESIS II 4.2 05:17:21 10° NW 05:21:17 60° WSW 05:25:07 10° SSE
SL-08 R/B 4.4 05:16:17 10° N 05:22:27 83° W 05:28:31 10° S
Cosmos 2221 2.5 05:22:21 10° NNW 05:26:38 67° W 05:30:51 10° S
CZ-4B DEB 4.3 05:22:13 10° NNE 05:27:44 90° W 05:33:12 10° SSW
PSLV R/B 4.3 05:25:00 10° N 05:28:58 48° WNW 05:32:57 10° SSW
Timation 2 Rocket 4.2 05:24:27 10° SW 05:31:05 68° WNW 05:37:29 10° NNE
SL-24 R/B 4.2 05:29:10 10° NNE 05:33:49 88° E 05:38:03 10° SSW
MTI 3.7 05:31:12 10° S 05:34:26 70° WSW 05:37:40 10° NNW
Cosmos 1674 2.8 05:33:58 10° S 05:37:45 81° E 05:41:36 10° N
Cosmos 1110 Rocket 4.0 05:35:14 10° NNW 05:40:32 69° WSW 05:45:46 10° S
EO 1 Del DPAF 3.3 05:36:49 10° S 05:40:37 59° WSW 05:44:26 10° NNW
